User: anonymous   Login
Location: Codford Saint Peter
(51.1597°N, 2.0531°W)
Time: 02:49:02
(UTC+00:00)
Language:

FENGYUN 1C DEB - Orbit

View from above orbital plane
View from above orbital plane
View from above satellite
View from above satellite

Ground track
Ground track

The orbit data is extracted from the following two-line orbital elements,

1 32154U 99025CSY 21330.79228995  .00187086  00000-0  29620-2 0  9991
2 32154  99.0034 266.6489 0022256 117.6053 242.7459 15.52481959770526
Epoch (UTC): 26 November 2021 19:00:53
Eccentricity: 0.0022256
inclination: 99.0034°
perigee height: 394 km
apogee height: 424 km
right ascension of ascending node: 266.6489°
argument of perigee: 117.6053°
revolutions per day: 15.52481959
mean anomaly at epoch: 242.7459°
orbit number at epoch: 77052

The dashed part of the orbit path shows where the satellite is in the earth's shadow,  

DLR